OneWeb SL0588

operational
NORAD ID: 55153 Int'l Des: 2023-004 Owner: ONEWEBN Country: UK Constellation: oneweb
LEOCIRCULARPOLARONEWEB_TYPE

Über OneWeb SL0588

Beschreibung wird geladen...

Live-Position

3D-Globus wird geladen...

Nächste Überflüge

Höhenverlauf

Altitude vs Time

uPlot chart will show altitude changes over time

Zweizeiliger Elementsatz

1 55153U 23004P 25304.71947619 .00000093 00000-0 20190-3 0 9993
2 55153 87.9215 20.8637 0001912 86.9871 273.1480 13.18685528139589
Epoch: 31. Okt. 2025 • Age: 11 hours

Aktueller Status

Höhe 1205.7 km
Geschwindigkeit 7.25 km/s
Subsatellitenpunkt -39.55°S, 81.55°W
Startdatum 10. Jan. 2023
Alter 2.8 years
Typ internet

Technische Details

Klassifizierung Payload
Masse 148.00 kg
Trockenmasse 140.00 kg
Gesamtmasse 148.00 kg
Länge 1.30 m
Durchmesser 1.00 m
Spannweite 5.00 m
Form Trapezoid+2 pan
Hersteller ONEWUS
Bus-Typ ARROW
Phasenstatus In Orbit
Besitzer/Staat ONEWEBN/UK

Große Konstellationen

Loading constellations...